Regional Weather Roundup
Issued by NWS

Home | Current Version | Previous Version | Graphics & Text | Print | Product List | Glossary On
Versions: 1 2 3 4 5 6 7 8 9 10 11 12 13 14 15 16 17 18 19 20 21 22 23 24 25 26 27 28 29 30 31 32 33 34 35 36 37 38 39 40 41 42 43 44 45 46 47 48 49 50
000
ASUS45 KCYS 111410
RWRWY

WYOMING REGIONAL WEATHER ROUNDUP
NATIONAL WEATHER SERVICE CHEYENNE WY
800 AM MDT FRI JUL 11 2014

NOTE:  "FAIR" INDICATES FEW OR NO CLOUDS BELOW 12,000 FEET
WITH NO SIGNIFICANT WEATHER AND/OR OBSTRUCTIONS TO VISIBILITY.

WYZ001-111500-
YELLOWSTONE NATIONAL PARK

CITY           SKY/WX    TMP DP  RH WIND       PRES   REMARKS
LK YELLOWSTONE   N/A     56  50  80 CALM      30.34R
W YELLOWSTONE  NOT AVBL

$$
WYZ002>013-054>058-071-098>099-111500-
NORTHERN WYOMING

CITY           SKY/WX    TMP DP  RH WIND       PRES   REMARKS
JACKSON        SUNNY     57  48  72 CALM      30.35R
CODY           SUNNY     66  55  68 CALM      30.11R
GREYBULL       SUNNY     68  52  56 SE5       30.02R
WORLAND        MOSUNNY   71  55  56 W5        30.04R
SHERIDAN       SUNNY     69  55  60 CALM      30.01R
BUFFALO        MOSUNNY   75  54  47 W5        30.08R
GILLETTE       MOSUNNY   71  60  68 CALM      30.04R
HULETT         FAIR      70  59  68 MISG      30.05
NEWCASTLE      FAIR      70  55  60 CALM      30.05

$$
WYZ014>020-022>026-101>103-111500-
CENTRAL WYOMING

CITY           SKY/WX    TMP DP  RH WIND       PRES   REMARKS
BIG PINEY      PTSUNNY   60  51  72 SE6       30.27R
PINEDALE       PTSUNNY   57  50  77 CALM      30.29R
DUBOIS         FAIR      61  45  55 NW9       30.25S
LANDER         PTSUNNY   70  53  54 CALM      30.12S
RIVERTON       PTSUNNY   67  52  58 NW9       30.13R
CASPER         CLOUDY    69  56  62 SW9       30.11S
DOUGLAS        CLOUDY    69  62  78 S3        30.11R

$$
WYZ021-027>030-104>119-111500-
SOUTHERN WYOMING

CITY           SKY/WX    TMP DP  RH WIND       PRES   REMARKS
EVANSTON       CLOUDY    57  53  86 W3        30.26R
KEMMERER       CLOUDY    57  52  82 CALM      30.28R
FORT BRIDGER     N/A     59  56  89 N5        30.29S
ROCK SPRINGS   CLOUDY    62  53  72 CALM      30.25R
DIXON          FAIR      62  55  76 E8        30.26S
RAWLINS        CLOUDY    64  53  67 W7        30.25R
SARATOGA       FAIR      64  52  63 E5        30.28S
LARAMIE        PTSUNNY   62  52  69 CALM      30.26R
CHEYENNE       PTSUNNY   67  55  65 S5        30.18R
TORRINGTON     MOSUNNY   67  63  87 SE6       30.05R

$$


USA.gov is the U.S. government's official web portal to all federal, state and local government web resources and services.